Location: *
(40.4000°N, 15.1200°E)
Time: 22:04:07
(UTC+00:00)

Cosmos 2341 Rocket - Pass Details

Date: 09 April 2020
Orbit: 969 x 1004 km, 82.9° (Epoch: 23 May)

Event Time Altitude Azimuth Distance (km) Brightness Sun altitude
Rises 19:00:17 0° 355° (N) 3,734 7.5 -16.6°
Reaches altitude 10° 19:02:52 10° 359° (N) 2,783 6.7 -17.0°
Maximum altitude 19:09:13 64° 80° (E) 1,103 4.0 -18.1°
Enters shadow 19:13:28 22° 157° (SSE) 2,039 5.2 -18.8°
